QPF
0.08 0.06 0.07 0.07 0.06 0.07 0.07 0.06 0.05 0.08 0.08 0.07 0.06 0.06 0.08 0.07 0.06 0.08 0.12 0.12 0.13 0.14 0.15 0.17 0.16 0.17 0.20 0.17 0.17 0.15 0.13 0.12 0.09 0.07 0.05 0.06 0.06 0.08 0.08 0.07 0.06 0.05 0.05
0.07 0.08 0.08 0.08 0.07 0.06 0.06 0.06 0.05 0.07 0.07 0.07 0.05 0.05 0.06 0.04 0.04 0.05 0.06 0.10 0.16 0.15 0.16 0.19 0.18 0.15 0.14 0.15 0.18 0.19 0.16 0.15 0.13 0.10 0.07 0.07 0.07 0.08 0.10 0.11 0.10 0.08 0.08
0.07 0.06 0.05 0.06 0.06 0.06 0.08 0.08 0.07 0.05 0.05 0.06 0.06 0.03 0.03 0.03 0.04 0.05 0.06 0.09 0.15 0.15 0.18 0.21 0.19 0.16 0.18 0.19 0.21 0.22 0.21 0.19 0.16 0.11 0.08 0.07 0.07 0.08 0.10 0.10 0.09 0.08 0.09
0.04 0.05 0.04 0.05 0.05 0.05 0.08 0.11 0.12 0.10 0.10 0.09 0.08 0.06 0.04 0.06 0.06 0.05 0.05 0.08 0.10 0.09 0.11 0.13 0.13 0.15 0.19 0.23 0.23 0.26 0.29 0.26 0.19 0.14 0.12 0.09 0.06 0.06 0.08 0.09 0.09 0.08 0.10
0.02 0.03 0.04 0.06 0.06 0.05 0.05 0.04 0.07 0.08 0.10 0.09 0.08 0.07 0.07 0.07 0.08 0.06 0.06 0.06 0.07 0.08 0.10 0.10 0.09 0.12 0.19 0.26 0.25 0.26 0.28 0.25 0.20 0.18 0.16 0.13 0.09 0.07 0.07 0.10 0.13 0.11 0.10
0.02 0.04 0.05 0.05 0.05 0.06 0.07 0.05 0.05 0.05 0.05 0.06 0.05 0.06 0.06 0.07 0.06 0.06 0.05 0.05 0.07 0.06 0.08 0.10 0.11 0.10 0.12 0.16 0.22 0.25 0.25 0.22 0.19 0.19 0.19 0.16 0.13 0.12 0.10 0.11 0.11 0.10 0.09
0.04 0.05 0.06 0.07 0.05 0.06 0.05 0.04 0.03 0.04 0.04 0.04 0.04 0.04 0.05 0.05 0.04 0.05 0.04 0.07 0.08 0.05 0.05 0.06 0.07 0.05 0.05 0.07 0.09 0.11 0.13 0.13 0.13 0.12 0.11 0.13 0.17 0.20 0.19 0.15 0.12 0.13 0.12
0.04 0.04 0.06 0.05 0.05 0.05 0.04 0.04 0.03 0.03 0.03 0.03 0.03 0.04 0.06 0.06 0.05 0.04 0.04 0.06 0.06 0.05 0.03 0.03 0.04 0.04 0.04 0.05 0.03 0.04 0.05 0.05 0.07 0.08 0.08 0.10 0.14 0.19 0.21 0.18 0.14 0.12 0.12
0.03 0.03 0.03 0.04 0.04 0.03 0.04 0.04 0.03 0.04 0.04 0.02 0.02 0.04 0.05 0.05 0.05 0.04 0.03 0.03 0.03 0.03 0.02 0.02 0.02 0.02 0.03 0.05 0.05 0.05 0.05 0.04 0.06 0.08 0.10 0.10 0.09 0.10 0.12 0.16 0.14 0.13 0.14
0.03 0.03 0.02 0.03 0.05 0.04 0.03 0.03 0.03 0.03 0.04 0.04 0.02 0.02 0.03 0.04 0.05 0.04 0.03 0.02 0.02 0.02 0.02 0.01 0.01 0.01 0.01 0.02 0.04 0.04 0.04 0.05 0.08 0.09 0.09 0.08 0.08 0.08 0.10 0.17 0.16 0.14 0.16
0.02 0.02 0.03 0.04 0.05 0.04 0.03 0.02 0.02 0.03 0.04 0.04 0.03 0.02 0.03 0.04 0.05 0.05 0.05 0.02 0.01 0.01 0.01 0.01 0.01 0.01 0.01 0.02 0.04 0.05 0.04 0.04 0.06 0.08 0.08 0.09 0.10 0.10 0.08 0.09 0.12 0.12 0.12
0.02 0.02 0.02 0.05 0.05 0.04 0.03 0.03 0.02 0.02 0.03 0.03 0.03 0.03 0.04 0.06 0.05 0.04 0.04 0.04 0.02 0.01 0.00 0.00 0.01 0.01 0.02 0.03 0.05 0.05 0.04 0.03 0.02 0.02 0.04 0.05 0.07 0.08 0.07 0.07 0.09 0.10 0.12
0.02 0.02 0.03 0.04 0.04 0.04 0.03 0.03 0.03 0.03 0.03 0.03 0.04 0.04 0.03 0.03 0.03 0.02 0.03 0.02 0.01 0.01 0.00 0.00 0.00 0.00 0.00 0.01 0.02 0.03 0.03 0.04 0.04 0.04 0.04 0.04 0.03 0.03 0.03 0.04 0.06 0.09 0.09
0.01 0.02 0.02 0.02 0.03 0.03 0.02 0.03 0.03 0.03 0.04 0.04 0.03 0.03 0.03 0.02 0.02 0.02 0.02 0.01 0.01 0.01 0.01 0.01 0.00 0.00 0.00 0.01 0.01 0.02 0.03 0.03 0.03 0.04 0.04 0.04 0.03 0.02 0.02 0.03 0.03 0.04 0.05
0.01 0.01 0.01 0.01 0.02 0.02 0.02 0.02 0.03 0.03 0.03 0.02 0.02 0.02 0.02 0.01 0.01 0.01 0.01 0.01 0.02 0.02 0.01 0.01 0.01 0.01 0.01 0.00 0.00 0.00 0.01 0.02 0.03 0.04 0.04 0.04 0.03 0.02 0.02 0.02 0.02 0.02 0.02
0.01 0.01 0.01 0.02 0.02 0.03 0.03 0.03 0.02 0.01 0.02 0.01 0.01 0.01 0.01 0.01 0.01 0.01 0.01 0.01 0.01 0.02 0.02 0.01 0.01 0.01 0.00 0.00 0.00 0.00 0.01 0.01 0.02 0.02 0.03 0.04 0.03 0.02 0.02 0.02 0.01 0.02 0.02
0.00 0.01 0.01 0.01 0.02 0.03 0.03 0.03 0.01 0.01 0.01 0.02 0.01 0.01 0.01 0.01 0.01 0.00 0.01 0.01 0.01 0.01 0.02 0.02 0.01 0.01 0.00 0.01 0.00 0.00 0.00 0.00 0.00 0.01 0.02 0.02 0.03 0.03 0.02 0.02 0.02 0.02 0.01
0.00 0.01 0.01 0.01 0.01 0.01 0.02 0.02 0.01 0.01 0.02 0.03 0.02 0.01 0.01 0.01 0.01 0.01 0.01 0.01 0.01 0.01 0.01 0.02 0.01 0.01 0.01 0.01 0.01 0.01 0.00 0.00 0.01 0.01 0.02 0.03 0.03 0.03 0.02 0.02 0.02 0.02 0.01
0.00 0.00 0.00 0.00 0.01 0.02 0.02 0.01 0.01 0.01 0.01 0.02 0.02 0.02 0.01 0.01 0.01 0.01 0.01 0.01 0.01 0.01 0.01 0.01 0.01 0.01 0.00 0.01 0.01 0.01 0.01 0.01 0.01 0.01 0.01 0.02 0.03 0.03 0.03 0.02 0.01 0.02 0.02
0.00 0.00 0.00 0.01 0.01 0.01 0.01 0.01 0.02 0.02 0.01 0.01 0.01 0.02 0.01 0.01 0.01 0.01 0.01 0.01 0.01 0.01 0.01 0.01 0.01 0.01 0.00 0.01 0.01 0.02 0.01 0.01 0.01 0.01 0.01 0.01 0.03 0.03 0.03 0.02 0.01 0.01 0.02
0.00 0.01 0.01 0.00 0.01 0.01 0.01 0.01 0.01 0.01 0.01 0.01 0.01 0.01 0.01 0.00 0.00 0.01 0.00 0.01 0.01 0.01 0.01 0.01 0.01 0.01 0.01 0.01 0.01 0.01 0.01 0.01 0.01 0.01 0.02 0.01 0.02 0.02 0.02 0.02 0.02 0.02 0.02
0.01 0.01 0.01 0.01 0.00 0.00 0.00 0.01 0.01 0.01 0.01 0.01 0.01 0.01 0.00 0.00 0.00 0.01 0.01 0.01 0.01 0.02 0.02 0.02 0.02 0.02 0.02 0.01 0.01 0.02 0.02 0.02 0.02 0.02 0.02 0.02 0.02 0.02 0.03 0.02 0.02 0.02 0.02
0.01 0.01 0.01 0.00 0.00 0.00 0.00 0.00 0.01 0.01 0.01 0.01 0.01 0.01 0.01 0.01 0.01 0.01 0.01 0.01 0.01 0.01 0.02 0.02 0.02 0.03 0.03 0.03 0.02 0.01 0.02 0.02 0.03 0.02 0.02 0.04 0.04 0.03 0.02 0.02 0.03 0.02 0.02
0.01 0.01 0.01 0.01 0.01 0.01 0.01 0.01 0.01 0.01 0.01 0.01 0.01 0.01 0.01 0.02 0.02 0.02 0.02 0.02 0.01 0.01 0.01 0.01 0.02 0.03 0.03 0.03 0.03 0.02 0.03 0.02 0.03 0.03 0.02 0.03 0.03 0.03 0.02 0.02 0.03 0.03 0.02
0.01 0.01 0.01 0.02 0.02 0.02 0.02 0.02 0.02 0.02 0.02 0.02 0.02 0.01 0.01 0.01 0.02 0.02 0.02 0.02 0.02 0.02 0.02 0.02 0.02 0.01 0.01 0.01 0.01 0.01 0.02 0.02 0.02 0.03 0.02 0.02 0.02 0.02 0.03 0.02 0.02 0.02 0.03
0.01 0.01 0.02 0.02 0.03 0.03 0.02 0.02 0.02 0.02 0.02 0.02 0.02 0.02 0.02 0.02 0.02 0.02 0.01 0.01 0.02 0.02 0.02 0.02 0.01 0.02 0.01 0.01 0.01 0.02 0.02 0.03 0.04 0.04 0.04 0.03 0.03 0.02 0.02 0.02 0.01 0.02 0.04
MSLP
1013.33 1013.31 1013.26 1013.21 1013.19 1013.24 1013.37 1013.56 1013.78 1013.99 1014.15 1014.22 1014.22 1014.16 1014.10 1014.10 1014.20 1014.45 1014.82 1015.29 1015.80 1016.28 1016.68 1016.95 1017.10 1017.13 1017.11 1017.07 1017.08 1017.15 1017.30 1017.50 1017.74 1017.98 1018.20 1018.37 1018.49 1018.58 1018.64 1018.70 1018.75 1018.81 1018.88
1013.38 1013.35 1013.28 1013.21 1013.17 1013.21 1013.33 1013.53 1013.77 1014.03 1014.24 1014.38 1014.44 1014.45 1014.43 1014.43 1014.52 1014.72 1015.02 1015.42 1015.85 1016.26 1016.61 1016.86 1016.99 1017.04 1017.02 1017.00 1017.01 1017.07 1017.21 1017.40 1017.63 1017.86 1018.08 1018.25 1018.38 1018.46 1018.52 1018.56 1018.59 1018.62 1018.66
1013.56 1013.52 1013.45 1013.36 1013.31 1013.33 1013.43 1013.62 1013.88 1014.15 1014.39 1014.58 1014.69 1014.74 1014.75 1014.76 1014.82 1014.96 1015.19 1015.50 1015.84 1016.19 1016.48 1016.70 1016.84 1016.89 1016.90 1016.89 1016.91 1016.97 1017.08 1017.25 1017.45 1017.66 1017.85 1018.02 1018.15 1018.24 1018.30 1018.34 1018.37 1018.40 1018.43
1013.83 1013.81 1013.74 1013.66 1013.60 1013.61 1013.69 1013.86 1014.09 1014.36 1014.61 1014.82 1014.96 1015.03 1015.06 1015.07 1015.10 1015.18 1015.34 1015.55 1015.81 1016.08 1016.32 1016.52 1016.65 1016.72 1016.74 1016.76 1016.78 1016.83 1016.92 1017.05 1017.21 1017.38 1017.55 1017.70 1017.82 1017.92 1018.00 1018.07 1018.12 1018.16 1018.20
1014.13 1014.14 1014.10 1014.04 1013.99 1013.99 1014.05 1014.19 1014.39 1014.63 1014.87 1015.08 1015.23 1015.31 1015.34 1015.35 1015.35 1015.38 1015.46 1015.60 1015.77 1015.97 1016.16 1016.32 1016.45 1016.53 1016.58 1016.61 1016.64 1016.69 1016.75 1016.84 1016.95 1017.08 1017.20 1017.33 1017.45 1017.56 1017.66 1017.75 1017.84 1017.92 1017.98
1014.42 1014.46 1014.46 1014.43 1014.40 1014.40 1014.45 1014.57 1014.74 1014.94 1015.15 1015.34 1015.48 1015.56 1015.60 1015.59 1015.57 1015.56 1015.58 1015.64 1015.74 1015.86 1016.00 1016.13 1016.25 1016.34 1016.41 1016.47 1016.51 1016.55 1016.60 1016.66 1016.73 1016.81 1016.89 1016.99 1017.09 1017.21 1017.33 1017.45 1017.57 1017.68 1017.77
1014.62 1014.70 1014.74 1014.75 1014.76 1014.78 1014.83 1014.93 1015.06 1015.23 1015.40 1015.56 1015.69 1015.77 1015.80 1015.79 1015.75 1015.71 1015.68 1015.68 1015.71 1015.77 1015.85 1015.96 1016.06 1016.16 1016.26 1016.34 1016.40 1016.46 1016.51 1016.55 1016.59 1016.63 1016.68 1016.74 1016.82 1016.93 1017.05 1017.19 1017.33 1017.46 1017.57
1014.73 1014.83 1014.91 1014.97 1015.02 1015.07 1015.14 1015.22 1015.33 1015.46 1015.60 1015.73 1015.84 1015.91 1015.94 1015.93 1015.88 1015.82 1015.76 1015.71 1015.68 1015.68 1015.71 1015.78 1015.87 1015.98 1016.10 1016.22 1016.33 1016.42 1016.49 1016.54 1016.57 1016.59 1016.61 1016.64 1016.69 1016.77 1016.87 1017.00 1017.14 1017.27 1017.38
1014.74 1014.85 1014.96 1015.06 1015.16 1015.25 1015.34 1015.43 1015.52 1015.63 1015.73 1015.83 1015.92 1015.98 1016.02 1016.01 1015.97 1015.90 1015.81 1015.72 1015.64 1015.58 1015.57 1015.60 1015.67 1015.79 1015.94 1016.10 1016.27 1016.42 1016.55 1016.64 1016.69 1016.71 1016.71 1016.70 1016.71 1016.74 1016.81 1016.89 1017.00 1017.11 1017.19
1014.68 1014.79 1014.92 1015.07 1015.21 1015.34 1015.45 1015.56 1015.64 1015.72 1015.80 1015.88 1015.95 1016.01 1016.04 1016.04 1016.01 1015.94 1015.83 1015.71 1015.59 1015.48 1015.42 1015.41 1015.46 1015.59 1015.77 1015.99 1016.23 1016.46 1016.66 1016.81 1016.90 1016.94 1016.94 1016.91 1016.87 1016.84 1016.84 1016.86 1016.91 1016.96 1017.00
1014.60 1014.70 1014.85 1015.03 1015.22 1015.39 1015.53 1015.64 1015.72 1015.78 1015.83 1015.88 1015.94 1015.99 1016.03 1016.04 1016.02 1015.95 1015.84 1015.69 1015.53 1015.38 1015.27 1015.22 1015.26 1015.38 1015.59 1015.86 1016.18 1016.49 1016.78 1017.01 1017.17 1017.24 1017.25 1017.20 1017.11 1017.02 1016.94 1016.88 1016.85 1016.83 1016.80
1014.52 1014.63 1014.80 1015.01 1015.23 1015.43 1015.59 1015.71 1015.78 1015.82 1015.85 1015.87 1015.91 1015.95 1015.99 1016.01 1016.00 1015.94 1015.82 1015.66 1015.47 1015.29 1015.13 1015.05 1015.06 1015.18 1015.41 1015.73 1016.11 1016.51 1016.89 1017.20 1017.42 1017.54 1017.56 1017.50 1017.38 1017.22 1017.07 1016.93 1016.81 1016.72 1016.63
1014.47 1014.59 1014.78 1015.02 1015.26 1015.48 1015.66 1015.77 1015.83 1015.85 1015.85 1015.85 1015.86 1015.88 1015.92 1015.95 1015.95 1015.90 1015.79 1015.62 1015.42 1015.21 1015.02 1014.91 1014.90 1015.01 1015.26 1015.61 1016.04 1016.50 1016.95 1017.33 1017.61 1017.78 1017.82 1017.76 1017.61 1017.41 1017.20 1016.99 1016.81 1016.65 1016.50
1014.44 1014.58 1014.79 1015.05 1015.31 1015.54 1015.72 1015.82 1015.86 1015.85 1015.82 1015.79 1015.77 1015.79 1015.82 1015.85 1015.86 1015.83 1015.73 1015.57 1015.37 1015.14 1014.94 1014.81 1014.78 1014.89 1015.13 1015.50 1015.96 1016.46 1016.95 1017.38 1017.71 1017.92 1017.98 1017.93 1017.78 1017.56 1017.31 1017.06 1016.83 1016.63 1016.43
1014.40 1014.57 1014.80 1015.07 1015.33 1015.56 1015.72 1015.81 1015.82 1015.78 1015.72 1015.66 1015.63 1015.62 1015.65 1015.69 1015.71 1015.69 1015.62 1015.48 1015.29 1015.08 1014.89 1014.75 1014.72 1014.82 1015.06 1015.43 1015.89 1016.40 1016.91 1017.36 1017.71 1017.94 1018.03 1017.99 1017.85 1017.64 1017.40 1017.14 1016.90 1016.68 1016.46
1014.31 1014.50 1014.74 1015.00 1015.26 1015.47 1015.61 1015.67 1015.66 1015.60 1015.51 1015.43 1015.38 1015.37 1015.39 1015.44 1015.47 1015.48 1015.43 1015.32 1015.17 1014.99 1014.83 1014.71 1014.70 1014.80 1015.04 1015.39 1015.83 1016.33 1016.82 1017.27 1017.62 1017.85 1017.96 1017.95 1017.84 1017.67 1017.45 1017.22 1017.01 1016.80 1016.59
1014.14 1014.33 1014.56 1014.81 1015.03 1015.22 1015.33 1015.38 1015.35 1015.27 1015.17 1015.08 1015.02 1015.01 1015.03 1015.08 1015.13 1015.15 1015.14 1015.08 1014.97 1014.85 1014.73 1014.67 1014.68 1014.81 1015.04 1015.38 1015.79 1016.25 1016.71 1017.12 1017.45 1017.68 1017.80 1017.82 1017.75 1017.63 1017.48 1017.31 1017.15 1016.98 1016.81
1013.86 1014.04 1014.25 1014.46 1014.65 1014.80 1014.89 1014.91 1014.87 1014.80 1014.70 1014.62 1014.57 1014.55 1014.58 1014.63 1014.69 1014.74 1014.76 1014.74 1014.69 1014.63 1014.59 1014.58 1014.65 1014.80 1015.04 1015.37 1015.75 1016.16 1016.57 1016.93 1017.22 1017.43 1017.56 1017.61 1017.59 1017.54 1017.47 1017.38 1017.30 1017.20 1017.08
1013.49 1013.64 1013.80 1013.96 1014.11 1014.22 1014.29 1014.30 1014.27 1014.21 1014.14 1014.08 1014.05 1014.05 1014.08 1014.14 1014.21 1014.27 1014.32 1014.34 1014.35 1014.35 1014.38 1014.44 1014.56 1014.75 1015.01 1015.32 1015.68 1016.04 1016.38 1016.69 1016.94 1017.12 1017.25 1017.33 1017.37 1017.39 1017.41 1017.42 1017.42 1017.41 1017.37
1013.05 1013.15 1013.26 1013.37 1013.47 1013.55 1013.60 1013.62 1013.61 1013.59 1013.56 1013.54 1013.54 1013.57 1013.61 1013.68 1013.75 1013.81 1013.87 1013.92 1013.96 1014.02 1014.11 1014.23 1014.41 1014.63 1014.91 1015.21 1015.53 1015.85 1016.14 1016.39 1016.59 1016.75 1016.88 1016.98 1017.08 1017.18 1017.29 1017.40 1017.50 1017.58 1017.62
1012.54 1012.59 1012.65 1012.71 1012.77 1012.83 1012.88 1012.93 1012.96 1012.99 1013.02 1013.06 1013.11 1013.17 1013.23 1013.30 1013.37 1013.43 1013.48 1013.54 1013.60 1013.69 1013.81 1013.97 1014.18 1014.43 1014.71 1015.01 1015.30 1015.57 1015.81 1016.00 1016.17 1016.31 1016.44 1016.58 1016.73 1016.91 1017.11 1017.32 1017.52 1017.68 1017.80
1011.99 1012.00 1012.02 1012.04 1012.08 1012.13 1012.19 1012.27 1012.36 1012.45 1012.56 1012.67 1012.78 1012.89 1012.98 1013.06 1013.12 1013.17 1013.21 1013.25 1013.31 1013.40 1013.52 1013.70 1013.91 1014.16 1014.43 1014.71 1014.96 1015.19 1015.38 1015.55 1015.68 1015.81 1015.96 1016.13 1016.33 1016.58 1016.86 1017.16 1017.45 1017.71 1017.90
1011.36 1011.36 1011.35 1011.36 1011.39 1011.45 1011.54 1011.66 1011.82 1011.99 1012.18 1012.38 1012.56 1012.73 1012.86 1012.96 1013.03 1013.06 1013.08 1013.09 1013.12 1013.18 1013.28 1013.43 1013.62 1013.84 1014.08 1014.32 1014.53 1014.73 1014.89 1015.02 1015.14 1015.28 1015.44 1015.65 1015.91 1016.22 1016.58 1016.96 1017.33 1017.66 1017.93
1010.65 1010.65 1010.65 1010.66 1010.70 1010.78 1010.91 1011.09 1011.31 1011.57 1011.85 1012.13 1012.41 1012.64 1012.84 1012.97 1013.05 1013.08 1013.08 1013.06 1013.04 1013.05 1013.10 1013.19 1013.33 1013.50 1013.68 1013.87 1014.04 1014.20 1014.33 1014.46 1014.58 1014.73 1014.92 1015.18 1015.49 1015.86 1016.29 1016.73 1017.16 1017.56 1017.89
1009.81 1009.84 1009.86 1009.89 1009.96 1010.08 1010.25 1010.49 1010.78 1011.12 1011.49 1011.87 1012.23 1012.56 1012.82 1013.00 1013.12 1013.16 1013.15 1013.10 1013.04 1013.00 1012.98 1013.00 1013.06 1013.15 1013.27 1013.40 1013.53 1013.66 1013.78 1013.90 1014.04 1014.22 1014.45 1014.75 1015.11 1015.53 1016.00 1016.49 1016.97 1017.41 1017.78
1008.82 1008.89 1008.95 1009.03 1009.14 1009.30 1009.52 1009.82 1010.18 1010.60 1011.05 1011.52 1011.97 1012.38 1012.72 1012.98 1013.14 1013.21 1013.21 1013.15 1013.06 1012.97 1012.88 1012.83 1012.81 1012.83 1012.88 1012.95 1013.04 1013.14 1013.25 1013.39 1013.56 1013.77 1014.04 1014.38 1014.78 1015.24 1015.73 1016.25 1016.75 1017.22 1017.62
Thickness
5768 5768 5766 5765 5767 5765 5765 5764 5763 5762 5762 5762 5763 5763 5762 5762 5762 5761 5758 5753 5750 5748 5746 5744 5743 5740 5738 5737 5735 5734 5732 5731 5729 5727 5726 5724 5722 5721 5720 5718 5717 5716 5715
5768 5768 5766 5765 5766 5766 5765 5764 5764 5762 5762 5762 5762 5761 5761 5761 5759 5758 5757 5754 5750 5748 5745 5743 5742 5740 5739 5737 5735 5734 5732 5731 5729 5727 5725 5723 5722 5720 5719 5717 5716 5715 5714
5767 5767 5767 5767 5767 5766 5765 5764 5763 5763 5762 5762 5761 5761 5760 5759 5758 5756 5755 5754 5752 5748 5745 5742 5741 5740 5739 5737 5736 5734 5732 5730 5728 5727 5725 5723 5721 5720 5718 5717 5715 5713 5712
5768 5768 5769 5769 5767 5767 5766 5764 5763 5763 5762 5761 5760 5760 5760 5758 5756 5755 5755 5753 5751 5750 5746 5742 5740 5739 5737 5736 5735 5733 5731 5729 5727 5726 5724 5723 5721 5719 5718 5716 5715 5713 5711
5769 5769 5769 5767 5767 5767 5767 5766 5764 5763 5761 5759 5759 5758 5759 5758 5756 5755 5753 5752 5750 5748 5746 5742 5739 5738 5736 5735 5733 5732 5730 5728 5727 5725 5724 5722 5720 5719 5717 5715 5713 5712 5710
5769 5770 5770 5768 5769 5768 5766 5764 5762 5761 5760 5759 5760 5757 5757 5756 5755 5753 5752 5750 5748 5746 5744 5742 5740 5737 5735 5733 5731 5730 5729 5727 5726 5724 5723 5721 5719 5718 5716 5713 5711 5710 5708
5769 5769 5770 5768 5768 5767 5765 5765 5763 5761 5760 5759 5756 5753 5754 5755 5753 5751 5750 5749 5747 5744 5742 5740 5739 5737 5735 5731 5729 5727 5726 5725 5724 5723 5721 5720 5718 5716 5714 5712 5710 5708 5706
5770 5771 5768 5769 5768 5766 5765 5764 5762 5762 5760 5759 5757 5752 5749 5748 5748 5751 5749 5746 5745 5743 5741 5738 5735 5733 5732 5730 5726 5724 5723 5722 5721 5720 5719 5718 5716 5714 5712 5710 5709 5706 5704
5770 5769 5769 5769 5768 5768 5765 5763 5762 5760 5758 5759 5759 5755 5749 5745 5746 5746 5745 5743 5741 5740 5740 5737 5734 5731 5729 5726 5724 5720 5719 5718 5718 5717 5717 5715 5713 5712 5709 5707 5706 5704 5702
5770 5770 5769 5769 5768 5768 5765 5766 5764 5762 5759 5758 5758 5756 5755 5752 5745 5740 5742 5742 5740 5738 5736 5735 5733 5729 5726 5724 5719 5716 5715 5714 5714 5714 5714 5712 5710 5708 5707 5705 5703 5702 5700
5771 5770 5770 5769 5768 5768 5766 5764 5762 5762 5761 5759 5757 5756 5753 5752 5750 5744 5737 5737 5738 5737 5735 5732 5730 5727 5724 5721 5718 5714 5711 5710 5709 5709 5708 5707 5706 5704 5703 5702 5700 5699 5698
5772 5771 5770 5768 5768 5768 5765 5764 5762 5761 5759 5757 5757 5756 5753 5750 5747 5745 5740 5736 5734 5734 5732 5730 5728 5725 5722 5719 5715 5710 5708 5706 5705 5704 5703 5702 5701 5700 5699 5698 5696 5695 5694
5772 5770 5771 5768 5768 5766 5765 5764 5761 5760 5758 5755 5754 5754 5754 5752 5750 5747 5742 5737 5734 5733 5730 5729 5727 5724 5721 5717 5712 5707 5705 5703 5701 5700 5699 5698 5697 5696 5695 5694 5692 5691 5690
5774 5772 5770 5768 5767 5766 5766 5763 5763 5760 5757 5755 5754 5752 5752 5751 5751 5748 5743 5738 5733 5731 5729 5727 5726 5723 5719 5715 5710 5706 5704 5700 5698 5697 5696 5694 5693 5692 5691 5690 5688 5687 5685
5774 5772 5770 5768 5767 5765 5764 5762 5761 5758 5757 5756 5755 5753 5751 5751 5750 5748 5745 5741 5734 5728 5726 5725 5723 5721 5717 5713 5707 5705 5702 5698 5695 5694 5692 5691 5689 5688 5687 5686 5684 5683 5681
5772 5771 5770 5768 5767 5765 5763 5761 5760 5758 5755 5753 5752 5749 5748 5750 5748 5745 5743 5741 5737 5731 5726 5726 5722 5721 5714 5712 5705 5703 5700 5696 5693 5691 5689 5687 5685 5684 5683 5681 5680 5679 5677
5772 5770 5769 5768 5766 5764 5762 5760 5759 5756 5753 5752 5751 5749 5746 5745 5745 5743 5741 5738 5734 5730 5723 5722 5721 5717 5710 5707 5704 5701 5699 5696 5693 5688 5686 5683 5682 5680 5678 5677 5675 5674 5672
5772 5770 5769 5767 5765 5764 5761 5759 5757 5756 5753 5750 5749 5747 5745 5744 5740 5739 5737 5734 5731 5727 5723 5717 5716 5713 5707 5704 5702 5699 5699 5697 5693 5687 5683 5680 5678 5676 5675 5673 5671 5669 5668
5771 5770 5768 5766 5764 5763 5761 5759 5756 5754 5752 5750 5748 5745 5742 5740 5736 5736 5732 5731 5729 5727 5722 5717 5714 5710 5707 5704 5699 5697 5696 5692 5691 5687 5681 5678 5675 5673 5671 5669 5667 5665 5663
5771 5769 5768 5765 5764 5762 5760 5758 5756 5753 5750 5748 5746 5743 5741 5738 5734 5732 5730 5727 5725 5722 5719 5716 5712 5708 5705 5701 5697 5694 5692 5690 5688 5687 5682 5678 5674 5670 5668 5665 5663 5661 5658
5771 5768 5766 5764 5762 5761 5760 5757 5755 5752 5749 5746 5744 5742 5739 5735 5731 5728 5727 5724 5721 5718 5716 5713 5710 5706 5702 5697 5695 5694 5690 5689 5686 5684 5680 5678 5674 5671 5667 5663 5660 5657 5655
5769 5767 5764 5763 5761 5761 5757 5753 5751 5750 5747 5744 5741 5739 5737 5732 5729 5724 5721 5717 5715 5713 5711 5709 5707 5702 5698 5697 5693 5691 5688 5684 5681 5682 5677 5676 5674 5671 5668 5665 5660 5655 5652
5767 5764 5762 5760 5759 5756 5752 5749 5745 5746 5744 5741 5738 5735 5735 5734 5727 5725 5719 5714 5711 5707 5704 5704 5702 5699 5697 5694 5690 5687 5683 5680 5678 5679 5674 5672 5671 5668 5666 5663 5657 5653 5649
5765 5763 5761 5759 5757 5754 5749 5745 5742 5742 5741 5739 5736 5733 5730 5728 5725 5720 5718 5715 5712 5709 5704 5700 5699 5697 5695 5691 5687 5684 5681 5677 5675 5673 5670 5667 5667 5666 5665 5660 5655 5650 5646
5763 5761 5759 5757 5754 5751 5746 5742 5738 5740 5738 5736 5733 5730 5726 5724 5718 5713 5712 5710 5708 5707 5702 5698 5694 5692 5688 5685 5682 5680 5677 5673 5671 5670 5668 5663 5663 5662 5660 5658 5653 5647 5643
5760 5759 5756 5754 5752 5750 5744 5739 5734 5738 5735 5734 5730 5727 5720 5717 5712 5707 5706 5705 5702 5702 5701 5697 5692 5688 5686 5682 5678 5675 5673 5670 5668 5666 5665 5660 5658 5656 5654 5655 5652 5646 5641